Погода в Семенове

Россия / Воронежская область     51°15′05″N   38°27′04″E
темп.,
°C
ветер,
м/с
пор.,
м/с
влажн.,
%
обл.,
%
осадки,
мм/ч
давл.,
гПа
погр.,
м
15 мая, сб
сб1500:00+17ююв41391100 0.0 1010283
03:00+15зюз239411 0.0 101136
06:00+15ююз358695 0.0 1011102
09:00+18ююз4670100 0.0 1013414
12:00+21юз46540 0.0 1013980
15:00+22ююз5752100 0.0 10131655
18:00+21ююз36650 0.1 1013396
21:00+17ююз227384 0.1 101413
16 мая, вс
вс1600:00+17ююв2272100 0.0 101413
03:00+14юв11815 0.0 101411
06:00+15вюв22855 0.0 101551
09:00+20юв236613 0.0 1015473
12:00+24вюв22515 0.0 10141256
15:00+25в445198 0.0 10131642
18:00+23всв4670100 0.4 1012276
21:00+18всв3687100 0.7 101281
17 мая, пн
пн1700:00+16всв467745 0.0 101287
03:00+15всв410806 0.0 1011139
06:00+15вюв411805 0.0 1010210
09:00+22юв6145564 0.0 1010549
12:00+25юв8134735 0.0 10091288
15:00+27юв8144910 0.0 10082037
18:00+23юв61357100 0.0 1008543
21:00+18вюв487779 0.0 1008126
18 мая, вт
вт1800:00+17юв4881100 0.0 1007121
03:00+16юв368595 0.0 100795
06:00+16ю499496 0.0 1008314
09:00+20ю71079100 0.0 1009690
12:00+21ююз71275100 0.0 10101056
15:00+22ююз686452 0.1 10091240
18:00+20ююз477494 1.6 1009533
21:00+16юв4781100 2.4 1010106
19 мая, ср
ср1900:00+14ю41291100 0.2 1010258
03:00+14ююв31091100 0.6 1009236
06:00+14ю4119333 0.1 1010432
09:00+18ююз81273100 0.1 1010932
12:00+20юз71063100 0.0 10111287
15:00+21юз696388 0.0 10121499
18:00+20зюз357499 0.1 1012877
21:00+17всв1287100 0.3 101217